Location: ??????
(30.5519°N, 47.7720°E)
Time: 18:07:50
(UTC+00:00)

Helios 1A Rocket - Pass Details

Date: 24 January 2021
Orbit: 562 x 586 km, 98.3° (Epoch: 01 March)

Event Time Altitude Azimuth Distance (km) Brightness Sun altitude
Rises 15:31:05 0° 154° (SSE) 2,791 6.3 -15.8°
Reaches altitude 10° 15:33:17 10° 149° (SSE) 1,898 5.4 -16.2°
Maximum altitude 15:37:15 48° 74° (ENE) 769 3.1 -17.1°
Drops below altitude 10° 15:41:14 10° 0° (N) 1,913 5.4 -17.9°
Sets 15:43:27 0° 355° (N) 2,816 6.4 -18.4°
